This is the latest recevied weather packets stored in our database for station/object EA3ANS-1. If no packets are shown the sender has not sent any weather packets the latest 10 day(s).
| Time | Temp. | Humidity | Pressure | Rain* | Wind** | Luminosity | Snow |
|---|---|---|---|---|---|---|---|
| 1787560716 | 26.11° C | - | 1013.6 hPa | 0 mm | 1.34 m/s, 311° | - | - |
| 1787560119 | 25.56° C | - | 1013.6 hPa | 0 mm | 1.79 m/s, 322° | - | - |
| 1787559551 | 25.56° C | - | 1013.6 hPa | 0 mm | 3.13 m/s, 321° | - | - |
| 1787559516 | 25.56° C | - | 1013.6 hPa | 0 mm | 3.13 m/s, 321° | - | - |
| 1787558919 | 25° C | - | 1013.3 hPa | 0 mm | 2.68 m/s, 305° | - | - |
| 1787558319 | 24.44° C | - | 1013 hPa | 0 mm | 2.68 m/s, 290° | - | - |
| 1787557722 | 24.44° C | - | 1012.8 hPa | 0 mm | 2.24 m/s, 335° | - | - |
| 1787557124 | 23.89° C | - | 1013.1 hPa | 0 mm | 3.58 m/s, 321° | - | - |
| 1787556523 | 23.89° C | - | 1013.1 hPa | 0 mm | 2.68 m/s, 326° | - | - |
| 1787555920 | 23.33° C | - | 1013.4 hPa | 0 mm | 2.24 m/s, 329° | - | - |
| 1787555318 | 23.33° C | - | 1013.6 hPa | 0 mm | 3.13 m/s, 326° | - | - |
| 1787554718 | 23.33° C | - | 1013.6 hPa | 0 mm | 3.13 m/s, 6° | - | - |
| 1787554114 | 22.78° C | - | 1013.7 hPa | 0 mm | 2.24 m/s, 315° | - | - |
| 1787553517 | 22.78° C | - | 1013.8 hPa | 0 mm | 1.79 m/s, 13° | - | - |
| 1787552920 | 22.22° C | - | 1014.2 hPa | 0 mm | 0.89 m/s, 312° | - | - |
| 1787552322 | 22.22° C | - | 1014.2 hPa | 0 mm | 0 m/s | - | - |
| 1787551725 | 22.22° C | - | 1014 hPa | 0 mm | 0 m/s | - | - |
| 1787551121 | 21.67° C | - | 1013.7 hPa | 0 mm | 1.34 m/s, 319° | - | - |
| 1787550524 | 21.67° C | - | 1013.2 hPa | 0 mm | 1.34 m/s, 339° | - | - |
| 1787549925 | 21.67° C | - | 1012.8 hPa | 0 mm | 0.89 m/s, 285° | - | - |
| 1787549318 | 21.67° C | - | 1012.7 hPa | 0 mm | 2.24 m/s, 347° | - | - |
| 1787548721 | 21.67° C | - | 1012.4 hPa | 0 mm | 2.24 m/s, 314° | - | - |
| 1787548124 | 21.67° C | - | 1013.2 hPa | 0 mm | 1.79 m/s, 18° | - | - |
| 1787547525 | 21.67° C | - | 1013.3 hPa | 0 mm | 0.89 m/s, 6° | - | - |
| 1787546920 | 21.67° C | - | 1013.3 hPa | 0 mm | 0 m/s | - | - |
* Rain latest hour (hover to see other rain measurements)
** Current wind speed in m/s (hover to see current wind gust speed)